(215518) = 2002 UY76 = 2007 YS31

Discovered at Palomar on 2002-10-31 by NEAT.

Orbit

Orbit type: Main Belt

Note: WebGL enabled browser required.

epoch2022-01-21.0
epoch JD2459600.5
perihelion date2021-08-13.41117
perihelion JD2459439.91117
argument of perihelion (°)336.41771
ascending node (°)146.13449
inclination (°)3.97504
eccentricity0.0477299
perihelion distance (AU)2.5884072
Tisserand w.r.t. Jupiter3.4
ΔV w.r.t. Earth (km/sec)10.1
semimajor axis (AU)2.7181439
mean anomaly (°)35.31917
mean daily motion (°/day)0.21993540
aphelion distance (AU)2.848
period (years)4.48
P-vector [x]-0.53860416
P-vector [y]0.78364550
P-vector [z]0.30952430
Q-vector [x]-0.84167294
Q-vector [y]-0.51725975
Q-vector [z]-0.15501294
absolute magnitude16.6
phase slope0.15
uncertainty0
referenceMPO 695556
observations used293
oppositions14
arc length (days)7111
first opposition used2002
last opposition used2022
residual rms (arc-secs)0.79
perturbers coarse indicatorM-v
perturbers precise indicator003Ek
first observation date used2002-10-31.0
last observation date used2022-04-20.0
computer namePan
JD of orbit computation2456406.202192
perihelion JD uncertainty (days)3.9767E-04
argument of perihelion uncertainty (°)1.3221E-04
ascending node uncertainty (°)9.6711E-05
inclination uncertainty (°)7.3689E-06
eccentricity uncertainty 7.4555E-08
perihelion distance uncertainty (AU)1.8968E-07
Minimum Orbit Intersection Distances (in AU)
for orbit epoch: 2458200.5, reference: MPO401691
Mercury2.25109
Venus1.87881
Earth1.6103
Mars0.942551
Jupiter2.16625
Saturn6.47313
Uranus15.5523
Neptune27.1166

Observations

302 total observations over interval: 2002 10 31.45854 – 2022 05 26.203522
These data are available for download (format description).

Date (UT) J2000 RA J2000 Dec Magn Location Ref
2002 10 31.45854 03 32 44.18 +12 48 05.5 19.9 R 644 – Palomar Mountain/NEAT MPS 272352
2002 10 31.48087 03 32 43.06 +12 47 59.9 20.0 R 644 – Palomar Mountain/NEAT MPS 272352
2002 10 31.50274 03 32 41.96 +12 47 55.0 20.4 R 644 – Palomar Mountain/NEAT MPS 272352
2002 11 12.38488 03 22 23.70 +12 01 51.1 19.6 R 644 – Palomar Mountain/NEAT MPS 272352
2002 11 12.40618 03 22 22.50 +12 01 46.5 19.3 R 644 – Palomar Mountain/NEAT MPS 272352
2002 11 14.30563 03 20 39.26 +11 54 48.0 20.1 R 644 – Palomar Mountain/NEAT MPS 272352
2002 11 14.37653 03 20 35.24 +11 54 32.4 19.2 R 644 – Palomar Mountain/NEAT MPS 272352
2002 11 14.43877 03 20 31.74 +11 54 18.9 19.8 R 644 – Palomar Mountain/NEAT MPS 272353
2002 11 22.39499 03 13 23.52 +11 27 38.1 19.8 R 644 – Palomar Mountain/NEAT MPS 272353
2002 11 22.41537 03 13 22.46 +11 27 34.7 19.8 R 644 – Palomar Mountain/NEAT MPS 272353
2002 11 22.43604 03 13 21.31 +11 27 30.3 20.1 R 644 – Palomar Mountain/NEAT MPS 272353
2002 12 01.50201 03 05 54.52 +11 03 55.8 19.7 R 608 – Haleakala-AMOS MPS 272353
2002 12 01.51229 03 05 54.04 +11 03 54.5 20.5 R 608 – Haleakala-AMOS MPS 272353
2002 12 01.52282 03 05 53.56 +11 03 52.5 19.3 R 608 – Haleakala-AMOS MPS 272353
2004 02 22.37938 11 17 18.25 +06 27 45.2 20.2 R 695 – Kitt Peak MPS 272353
2004 02 22.42094 11 17 16.33 +06 28 01.4   695 – Kitt Peak MPS 272353
2004 02 23.33739 11 16 35.75 +06 34 00.7   704 – Lincoln Laboratory ETS, New Mexico MPS 406955
2004 02 23.34975 11 16 35.17 +06 34 06.9   704 – Lincoln Laboratory ETS, New Mexico MPS 406955
2004 02 23.37444 11 16 34.06 +06 34 18.1   704 – Lincoln Laboratory ETS, New Mexico MPS 406955
2006 08 19.33782 00 34 18.12 +00 49 12.1   291 – LPL/Spacewatch II MPS 272353
2006 08 19.34368 00 34 18.04 +00 49 11.2   291 – LPL/Spacewatch II MPS 272353
2006 08 19.34903 00 34 17.95 +00 49 09.8   291 – LPL/Spacewatch II MPS 272353
2006 09 30.27480 00 08 21.22 -03 07 36.1 20.3 V G96 – Mt. Lemmon Survey MPS 272353
2006 09 30.28390 00 08 20.79 -03 07 39.3 20.2 V G96 – Mt. Lemmon Survey MPS 272353
2006 09 30.29292 00 08 20.32 -03 07 42.7 20.1 V G96 – Mt. Lemmon Survey MPS 272353
2006 09 30.30231 00 08 19.89 -03 07 46.3 20.2 V G96 – Mt. Lemmon Survey MPS 272353
2006 09 30.32693 00 08 18.67 -03 07 55.4 20.9 V 703 – Catalina Sky Survey MPS 272353
2006 09 30.33885 00 08 18.09 -03 07 59.0 20.6 V 703 – Catalina Sky Survey MPS 272353
2006 09 30.35081 00 08 17.41 -03 08 04.3 20.4 V 703 – Catalina Sky Survey MPS 272353
2006 09 30.36277 00 08 16.98 -03 08 06.7 20.3 V 703 – Catalina Sky Survey MPS 272353
2007 12 06.45928 07 49 10.32 +16 53 22.0 20.4 V 691 – Steward Observatory, Kitt Peak-Spacewatch MPS 272353
2007 12 06.47693 07 49 09.93 +16 53 23.0 20.9 V 691 – Steward Observatory, Kitt Peak-Spacewatch MPS 272353
2007 12 06.49455 07 49 09.58 +16 53 23.9 20.5 V 691 – Steward Observatory, Kitt Peak-Spacewatch MPS 272353
2007 12 28.45833 07 35 46.02 +17 31 19.0   291 – LPL/Spacewatch II MPS 232682
2007 12 28.46220 07 35 45.82 +17 31 19.5   291 – LPL/Spacewatch II MPS 232682
2007 12 28.46600 07 35 45.62 +17 31 20.1   291 – LPL/Spacewatch II MPS 232682
2007 12 30.24070 07 34 14.23 +17 36 08.8 20.2 V 691 – Steward Observatory, Kitt Peak-Spacewatch MPS 232682
2007 12 30.25833 07 34 13.29 +17 36 12.1 20.0 V 691 – Steward Observatory, Kitt Peak-Spacewatch MPS 232682
2007 12 30.27596 07 34 12.30 +17 36 15.1 20.1 V 691 – Steward Observatory, Kitt Peak-Spacewatch MPS 232682
2008 01 11.28522 07 22 58.58 +18 13 11.0 19.7 V G96 – Mt. Lemmon Survey MPS 272353
2008 01 11.29127 07 22 58.18 +18 13 12.3 19.9 V G96 – Mt. Lemmon Survey MPS 272353
2008 01 11.29734 07 22 57.86 +18 13 13.4 19.7 V G96 – Mt. Lemmon Survey MPS 272353
2008 01 11.30343 07 22 57.46 +18 13 14.3 19.7 V G96 – Mt. Lemmon Survey MPS 272353
2008 02 07.09901 07 01 02.58 +19 39 59.5 20.6 V 691 – Steward Observatory, Kitt Peak-Spacewatch MPS 272353
2008 02 07.11233 07 01 02.13 +19 40 02.3 20.3 V 691 – Steward Observatory, Kitt Peak-Spacewatch MPS 272353
2008 02 07.12567 07 01 01.64 +19 40 04.4 20.4 V 691 – Steward Observatory, Kitt Peak-Spacewatch MPS 272353
2009 05 04.23740 14 40 57.50 -09 15 12.3 19.5 V G96 – Mt. Lemmon Survey MPS 286416
2009 05 04.24351 14 40 57.21 -09 15 10.3 19.9 V G96 – Mt. Lemmon Survey MPS 286416
2009 05 04.24962 14 40 56.89 -09 15 08.8 19.9 V G96 – Mt. Lemmon Survey MPS 286416
2009 05 04.25572 14 40 56.53 -09 15 07.4 19.8 V G96 – Mt. Lemmon Survey MPS 286416
2009 05 16.27799 14 31 09.26 -08 29 37.7 20.0 V G96 – Mt. Lemmon Survey MPS 286871
2009 05 16.28559 14 31 08.90 -08 29 36.3 20.1 V G96 – Mt. Lemmon Survey MPS 286871
2009 05 16.29323 14 31 08.54 -08 29 34.8 20.2 V G96 – Mt. Lemmon Survey MPS 286871
2009 05 16.30083 14 31 08.18 -08 29 33.2 20.4 V G96 – Mt. Lemmon Survey MPS 286871
2010 07 06.34153 21 37 56.02 -12 24 46.7 21.4 V 691 – Steward Observatory, Kitt Peak-Spacewatch MPS 338836
2010 07 06.35920 21 37 55.63 -12 24 49.2 20.9 V 691 – Steward Observatory, Kitt Peak-Spacewatch MPS 338836
2010 07 06.37691 21 37 55.19 -12 24 51.8 21.5 V 691 – Steward Observatory, Kitt Peak-Spacewatch MPS 338836
2010 08 06.470460 21 17 27.546 -14 36 07.98 21.13 g F51 – Pan-STARRS 1, Haleakala MPS 365255
2010 08 06.481336 21 17 26.996 -14 36 11.49 21.04 g F51 – Pan-STARRS 1, Haleakala MPS 365255
2011 11 22.28253 03 36 20.73 +12 51 41.3 19.6 V 703 – Catalina Sky Survey MPS 403667
2011 11 22.29032 03 36 20.16 +12 51 39.9 19.3 V 703 – Catalina Sky Survey MPS 403667
2011 11 22.29821 03 36 19.72 +12 51 40.3 18.9 V 703 – Catalina Sky Survey MPS 403667
2011 11 22.30620 03 36 19.26 +12 51 37.0 19.3 V 703 – Catalina Sky Survey MPS 403667
2011 11 27.26668 03 31 49.87 +12 37 44.3 19.5 V G96 – Mt. Lemmon Survey MPS 403667
2011 11 27.27543 03 31 49.40 +12 37 43.1 19.4 V G96 – Mt. Lemmon Survey MPS 403667
2011 11 27.28413 03 31 48.90 +12 37 41.8 19.5 V G96 – Mt. Lemmon Survey MPS 403667
2011 11 27.29288 03 31 48.43 +12 37 40.2 19.4 V G96 – Mt. Lemmon Survey MPS 403667
2011 12 02.25912 03 27 32.268 +12 25 51.87 21.5 i F51 – Pan-STARRS 1, Haleakala MPS 403667
2011 12 02.27184 03 27 31.610 +12 25 50.30 21.4 i F51 – Pan-STARRS 1, Haleakala MPS 403667
2011 12 02.28508 03 27 30.925 +12 25 48.66 20.8 r F51 – Pan-STARRS 1, Haleakala MPS 403667
2011 12 02.29702 03 27 30.319 +12 25 47.13 20.8 r F51 – Pan-STARRS 1, Haleakala MPS 403667
2013 01 16.43509 11 45 55.80 +02 34 43.2 21.2 V G96 – Mt. Lemmon Survey MPS 452066
2013 01 16.44411 11 45 55.83 +02 34 44.2 21.5 V G96 – Mt. Lemmon Survey MPS 452066
2013 01 16.45309 11 45 55.90 +02 34 43.9 21.9 V G96 – Mt. Lemmon Survey MPS 452066
2013 01 16.46206 11 45 56.05 +02 34 44.3 21.4 V G96 – Mt. Lemmon Survey MPS 452066
2013 02 03.57791 11 45 05.578 +03 14 28.60 20.4 i F51 – Pan-STARRS 1, Haleakala MPS 455899
2013 02 03.59034 11 45 05.347 +03 14 31.28 20.5 i F51 – Pan-STARRS 1, Haleakala MPS 455899
2013 02 19.37924 11 37 47.57 +04 33 18.5   691 – Steward Observatory, Kitt Peak-Spacewatch MPS 457135
2013 02 19.39726 11 37 46.83 +04 33 25.1   691 – Steward Observatory, Kitt Peak-Spacewatch MPS 457135
2013 02 19.41512 11 37 46.14 +04 33 32.2   691 – Steward Observatory, Kitt Peak-Spacewatch MPS 457135
2013 03 14.31756 11 20 22.05 +07 04 59.4 19.8 V G96 – Mt. Lemmon Survey MPS 460339
2013 03 14.32284 11 20 21.80 +07 05 01.3 19.7 V G96 – Mt. Lemmon Survey MPS 460339
2013 03 14.32812 11 20 21.55 +07 05 03.4 19.8 V G96 – Mt. Lemmon Survey MPS 460339
2013 03 14.33337 11 20 21.30 +07 05 05.3 20.0 V G96 – Mt. Lemmon Survey MPS 460339
2013 03 16.22829 11 18 50.21 +07 17 23.2 19.5 G G45 – Space Surveillance Telescope, Atom Site MPS 1607659
2013 03 16.23963 11 18 49.61 +07 17 27.1 20.3 G G45 – Space Surveillance Telescope, Atom Site MPS 1607659
2013 03 16.28175 11 18 47.55 +07 17 43.5 20.5 G G45 – Space Surveillance Telescope, Atom Site MPS 1607659
2013 03 16.34880 11 18 44.22 +07 18 08.8 20.0 G G45 – Space Surveillance Telescope, Atom Site MPS 1607659
2013 04 06.23563 11 04 46.63 +09 06 19.2 20.4 V G96 – Mt. Lemmon Survey MPS 463776
2013 04 06.24091 11 04 46.48 +09 06 20.0 20.0 V G96 – Mt. Lemmon Survey MPS 463776
2013 04 06.24623 11 04 46.34 +09 06 21.3 21.0 V G96 – Mt. Lemmon Survey MPS 463776
2013 04 06.25154 11 04 46.12 +09 06 22.6 21.8 V G96 – Mt. Lemmon Survey MPS 463776
